TimeCDT,TemperatureF,Dew PointF,Humidity,Sea Level PressureIn,VisibilityMPH,Wind Direction,Wind SpeedMPH,Gust SpeedMPH,PrecipitationIn,Events,Conditions,WindDirDegrees,DateUTC
12:08 AM,35.6,35.6,100,29.96,10.0,East,3.5,-,N/A,,Overcast,90,2013-03-23 05:08:00
12:18 AM,35.6,35.6,100,29.97,10.0,East,2.3,-,N/A,,Overcast,90,2013-03-23 05:18:00
12:33 AM,35.6,35.6,100,29.97,10.0,East,2.3,-,N/A,,Overcast,100,2013-03-23 05:33:00
12:58 AM,35.1,35.1,100,30.01,10.0,ESE,3.5,-,N/A,,Overcast,110,2013-03-23 05:58:00
1:28 AM,35.6,35.6,100,29.96,10.0,East,3.5,-,N/A,,Overcast,80,2013-03-23 06:28:00
1:38 AM,35.6,35.6,100,29.96,10.0,ENE,3.5,-,N/A,,Overcast,60,2013-03-23 06:38:00
1:58 AM,35.1,34.9,99,30.00,10.0,ENE,3.5,-,N/A,,Overcast,60,2013-03-23 06:58:00
2:18 AM,35.6,33.8,93,29.96,10.0,NNE,2.3,-,N/A,,Overcast,30,2013-03-23 07:18:00
2:58 AM,34.7,34.5,99,29.98,10.0,NE,5.8,-,N/A,,Overcast,40,2013-03-23 07:58:00
3:38 AM,35.6,33.8,93,29.93,10.0,NE,5.8,-,N/A,,Overcast,50,2013-03-23 08:38:00
3:58 AM,34.9,34.3,98,29.96,10.0,NE,4.6,-,N/A,,Overcast,50,2013-03-23 08:58:00
4:58 AM,34.9,32.5,91,29.96,10.0,ENE,5.8,-,N/A,,Overcast,60,2013-03-23 09:58:00
5:43 AM,35.6,32.0,87,29.93,10.0,ENE,5.8,-,N/A,,Overcast,60,2013-03-23 10:43:00
5:58 AM,34.9,31.3,87,29.96,10.0,NE,6.9,-,N/A,,Overcast,50,2013-03-23 10:58:00
6:18 AM,35.6,32.0,87,29.94,10.0,NE,5.8,-,N/A,,Overcast,40,2013-03-23 11:18:00
6:58 AM,34.9,30.2,83,29.99,10.0,ENE,4.6,-,N/A,,Overcast,60,2013-03-23 11:58:00
7:58 AM,35.2,30.4,82,30.00,10.0,ENE,5.8,-,N/A,,Overcast,70,2013-03-23 12:58:00
8:08 AM,35.6,30.2,81,29.96,10.0,ENE,6.9,-,N/A,,Overcast,60,2013-03-23 13:08:00
8:58 AM,36.5,30.0,77,29.98,10.0,NE,8.1,-,N/A,,Overcast,50,2013-03-23 13:58:00
9:58 AM,37.8,30.7,76,30.00,10.0,East,6.9,-,N/A,,Overcast,80,2013-03-23 14:58:00
10:58 AM,40.1,32.0,73,29.99,10.0,ENE,9.2,-,N/A,,Overcast,60,2013-03-23 15:58:00
11:38 AM,42.8,33.8,70,29.94,10.0,ENE,9.2,-,N/A,,Overcast,60,2013-03-23 16:38:00
11:58 AM,43.5,34.2,70,29.97,10.0,ENE,9.2,-,N/A,,Overcast,70,2013-03-23 16:58:00
12:58 PM,46.6,35.6,66,29.94,10.0,NE,9.2,-,N/A,,Overcast,50,2013-03-23 17:58:00
1:58 PM,47.7,35.2,62,29.91,10.0,NE,12.7,17.3,N/A,,Overcast,40,2013-03-23 18:58:00
2:58 PM,47.3,34.5,61,29.88,10.0,NE,8.1,-,N/A,,Overcast,50,2013-03-23 19:58:00
3:06 PM,48.2,33.8,58,29.85,10.0,ENE,8.1,-,N/A,,Light Drizzle,60,2013-03-23 20:06:00
3:15 PM,48.2,33.8,58,29.84,10.0,ENE,9.2,-,N/A,,Overcast,60,2013-03-23 20:15:00
3:32 PM,48.2,35.6,62,29.83,10.0,ENE,8.1,-,N/A,,Light Drizzle,70,2013-03-23 20:32:00
3:47 PM,46.4,37.4,71,29.83,10.0,ENE,8.1,-,N/A,,Overcast,60,2013-03-23 20:47:00
3:58 PM,46.2,36.7,69,29.86,10.0,ENE,6.9,-,0.00,,Overcast,60,2013-03-23 20:58:00
4:30 PM,46.4,37.4,71,29.81,10.0,ENE,5.8,-,N/A,Rain,Light Rain,60,2013-03-23 21:30:00
4:54 PM,44.6,39.2,81,29.80,10.0,ENE,9.2,-,N/A,,Overcast,60,2013-03-23 21:54:00
4:58 PM,45.1,38.5,77,29.83,10.0,NE,8.1,-,0.00,,Overcast,50,2013-03-23 21:58:00
5:01 PM,44.6,39.2,81,29.80,10.0,ENE,6.9,-,N/A,Rain,Light Rain,60,2013-03-23 22:01:00
5:15 PM,44.6,39.2,81,29.80,10.0,NE,5.8,-,N/A,,Overcast,50,2013-03-23 22:15:00
5:58 PM,45.3,39.0,79,29.82,10.0,NE,5.8,-,0.00,,Overcast,50,2013-03-23 22:58:00
6:23 PM,44.6,39.2,81,29.79,10.0,ENE,5.8,-,N/A,,Light Drizzle,70,2013-03-23 23:23:00
6:33 PM,44.6,39.2,81,29.78,10.0,ENE,5.8,-,N/A,,Overcast,60,2013-03-23 23:33:00
6:51 PM,44.6,39.2,81,29.79,10.0,NE,4.6,-,N/A,,Light Drizzle,40,2013-03-23 23:51:00
6:58 PM,44.8,39.7,82,29.82,10.0,ENE,3.5,-,0.00,Rain,Light Rain,70,2013-03-23 23:58:00
7:03 PM,44.6,39.2,81,29.79,10.0,NE,3.5,-,N/A,,Overcast,50,2013-03-24 00:03:00
7:25 PM,44.6,41.0,87,29.79,10.0,NNE,3.5,-,N/A,,Light Drizzle,20,2013-03-24 00:25:00
7:38 PM,44.6,41.0,87,29.79,10.0,NNE,2.3,-,N/A,,Overcast,30,2013-03-24 00:38:00
7:43 PM,42.8,41.0,93,29.79,10.0,North,2.3,-,N/A,,Overcast,360,2013-03-24 00:43:00
7:58 PM,43.3,41.2,92,29.83,10.0,North,2.3,-,0.00,,Overcast,360,2013-03-24 00:58:00
8:00 PM,42.8,41.0,93,29.80,10.0,North,3.5,-,N/A,,Light Drizzle,360,2013-03-24 01:00:00
8:14 PM,42.8,41.0,93,29.79,10.0,NNE,3.5,-,N/A,,Overcast,30,2013-03-24 01:14:00
8:24 PM,42.8,41.0,93,29.80,10.0,NNE,4.6,-,N/A,,Light Drizzle,30,2013-03-24 01:24:00
8:43 PM,42.8,41.0,93,29.79,10.0,NE,5.8,-,N/A,,Overcast,50,2013-03-24 01:43:00
8:46 PM,42.8,41.0,93,29.79,10.0,NE,8.1,-,N/A,,Light Drizzle,50,2013-03-24 01:46:00
8:58 PM,42.8,41.0,93,29.82,9.0,ENE,10.4,-,0.00,Rain,Light Rain,60,2013-03-24 01:58:00
9:31 PM,41.0,41.0,100,29.78,10.0,NE,9.2,-,N/A,,Overcast,50,2013-03-24 02:31:00
9:58 PM,41.4,39.7,94,29.82,10.0,ENE,11.5,-,0.03,,Overcast,70,2013-03-24 02:58:00
10:22 PM,41.0,39.2,93,29.80,10.0,ENE,8.1,-,N/A,,Light Drizzle,60,2013-03-24 03:22:00
10:55 PM,41.0,39.2,93,29.80,10.0,NE,5.8,-,N/A,,Overcast,40,2013-03-24 03:55:00
10:58 PM,40.8,39.6,95,29.83,10.0,NE,8.1,-,0.00,,Overcast,40,2013-03-24 03:58:00
11:13 PM,41.0,39.2,93,29.80,9.0,NNE,8.1,-,N/A,Rain,Light Rain,30,2013-03-24 04:13:00
11:33 PM,39.2,39.2,100,29.80,7.0,NNE,8.1,-,N/A,Rain,Light Rain,20,2013-03-24 04:33:00
11:48 PM,39.2,39.2,100,29.80,4.0,North,10.4,-,N/A,Rain,Light Rain,350,2013-03-24 04:48:00
11:53 PM,39.2,39.2,100,29.80,4.0,North,11.5,-,N/A,Rain,Light Rain,360,2013-03-24 04:53:00
11:58 PM,38.5,38.5,100,29.83,4.0,North,10.4,-,0.05,Rain,Rain,10,2013-03-24 04:58:00